Weather History for Doylestown, PA

Change the Weather History Date:

Saturday, August 3, 2013

  Actual Average (KTTN) Record (KTTN)
Temperature  
Mean Temperature 69 °F 75 °F  
Max Temperature 75 °F 85 °F 98 °F (1975)
Min Temperature 63 °F 66 °F 53 °F (1985)
Degree Days  
Heating Degree Days 0 0  
Month to date heating degree days 0  
Since 1 June heating degree days 24  
Since 1 July heating degree days 0  
Cooling Degree Days 4 10  
Month to date cooling degree days 31  
Year to date cooling degree days 608  
Since 1 June cooling degree days 551  
Growing Degree Days 19 (Base 50)    
Moisture  
Dew Point 64 °F    
Average Humidity 85    
Maximum Humidity 100    
Minimum Humidity 71    
Precipitation  
Precipitation 0.04 in 0.15 in 3.73 in (1950)
Month to date precipitation 0.45  
Year to date precipitation 27.33  
Sea Level Pressure  
Sea Level Pressure 29.91 in    
Wind  
Wind Speed 2 mph (WSW)    
Max Wind Speed 8 mph    
Max Gust Speed -    
Visibility 10 miles    
Events Rain    
T = Trace of Precipitation, MM = Missing Value Source: NWS Daily Summary

Daily Weather History Graph

Daily Weather History Graph

Search for Another Location

Airport:

Trip Planner

Search our weather history database for the weather conditions in past years. The results will help you decide how hot, cold, wet, or windy it might be!

Date:

Astronomy

Aug. 03, 2013 Rise Set
Actual Time 6:00 AM EDT 8:12 PM EDT
Civil Twilight 5:29 AM EDT 8:42 PM EDT
Nautical Twilight 4:52 AM EDT 9:19 PM EDT
Astronomical Twilight 4:11 AM EDT 10:00 PM EDT
Moon 3:07 AM EDT (8/3) 5:53 PM EDT (8/3)
Length of Visible Light 15h 12m
Length of Day
14h 12m
Waning Crescent, 9% of the Moon is Illuminated
Aug 3
Waning Crescent
Aug 6
New
Aug 14
First Quarter
Aug 20
Full
Aug 28
Last Quarter

Hourly Weather History & Observations

Time (EDT) Temp. Dew Point Humidity Pressure Visibility Wind Dir Wind Speed Gust Speed Precip Events Conditions
12:54 AM 64.9 °F 61.0 °F 87% 29.92 in 10.0 mi Calm Calm - N/A   Clear
1:54 AM 64.9 °F 61.0 °F 87% 29.91 in 10.0 mi Calm Calm - N/A   Clear
2:54 AM 64.9 °F 62.1 °F 90% 29.88 in 10.0 mi Calm Calm - N/A   Scattered Clouds
3:54 AM 66.0 °F 60.1 °F 81% 29.89 in 10.0 mi Calm Calm - N/A   Clear
4:54 AM 66.0 °F 60.1 °F 81% 29.90 in 10.0 mi Calm Calm - N/A   Mostly Cloudy
5:54 AM 64.9 °F 61.0 °F 87% 29.89 in 10.0 mi Calm Calm - N/A   Scattered Clouds
6:54 AM 66.9 °F 61.0 °F 81% 29.90 in 10.0 mi Calm Calm - N/A   Scattered Clouds
7:54 AM 69.1 °F 61.0 °F 75% 29.91 in 10.0 mi WSW 3.5 mph - N/A   Mostly Cloudy
8:54 AM 70.0 °F 62.1 °F 76% 29.93 in 10.0 mi Variable 6.9 mph - N/A   Scattered Clouds
9:54 AM 70.0 °F 64.0 °F 81% 29.93 in 10.0 mi WSW 4.6 mph - 0.00 in Rain Light Rain
10:54 AM 69.1 °F 66.0 °F 90% 29.92 in 10.0 mi WNW 3.5 mph - 0.02 in Rain Light Rain
11:54 AM 69.1 °F 66.9 °F 93% 29.93 in 10.0 mi SW 3.5 mph - 0.02 in Rain Light Rain
12:20 PM 68.0 °F 66.2 °F 94% 29.94 in 10.0 mi WSW 3.5 mph - 0.00 in Rain Light Rain
12:42 PM 68.0 °F 66.2 °F 94% 29.94 in 10.0 mi SSW 4.6 mph - 0.00 in   Overcast
12:54 PM 68.0 °F 66.0 °F 93% 29.93 in 10.0 mi SW 4.6 mph - 0.00 in   Overcast
1:14 PM 69.8 °F 66.2 °F 88% 29.93 in 10.0 mi SW 4.6 mph - N/A   Mostly Cloudy
1:38 PM 69.8 °F 66.2 °F 88% 29.94 in 10.0 mi SW 5.8 mph - N/A   Overcast
1:54 PM 69.1 °F 66.9 °F 93% 29.93 in 10.0 mi WSW 5.8 mph - N/A   Overcast
2:54 PM 71.1 °F 66.0 °F 84% 29.91 in 10.0 mi WSW 5.8 mph - N/A   Overcast
3:54 PM 72.0 °F 64.9 °F 78% 29.90 in 10.0 mi WSW 8.1 mph - N/A   Overcast
4:54 PM 72.0 °F 63.0 °F 73% 29.88 in 10.0 mi SW 6.9 mph - N/A   Overcast
5:54 PM 75.0 °F 64.9 °F 71% 29.88 in 10.0 mi West 5.8 mph - N/A   Overcast
6:54 PM 73.0 °F 64.0 °F 73% 29.88 in 10.0 mi SW 5.8 mph - N/A   Clear
7:54 PM 72.0 °F 64.9 °F 78% 29.88 in 10.0 mi Calm Calm - N/A   Mostly Cloudy
8:54 PM 70.0 °F 64.0 °F 81% 29.89 in 10.0 mi West 4.6 mph - N/A   Partly Cloudy
9:54 PM 66.0 °F 64.0 °F 93% 29.90 in 10.0 mi Calm Calm - N/A   Clear
10:54 PM 63.0 °F 63.0 °F 100% 29.90 in 10.0 mi Calm Calm - N/A   Clear
11:54 PM 63.0 °F 63.0 °F 100% 29.90 in 9.0 mi Calm Calm - N/A   Clear